Find Starlink 11152

NORAD ID: 60194 Int'l Des: 2024-124 Owner: SPXS Country: US Constellation: starlink operational
LEOCIRCULAR

Live Position

Loading 3D Globe...

About Starlink 11152

Description loading...

Upcoming Passes

Passes for default location (London). Set your location on the main map for personalized predictions.

Altitude History

Loading altitude history...

Two-Line Element Set

1 60194U 24124M 26109.82004007 -.00002696 00000-0 -17423-4 0 9998
2 60194 53.1582 318.5234 0000918 85.2217 274.8906 15.69690404104189
Epoch: Apr 19, 2026 • Age: 8 hours

Current Status

Altitude 365.5 km
Velocity 7.70 km/s
Sub-Earth Point 52.28°N, 158.03°E
Launch Date Jul 3, 2024
Age 1.7 years
Type internet

Technical Details

Classification Payload
Mass 960.00 kg
Dry Mass 910.00 kg
Total Mass 960.00 kg
Length 0.30 m
Diameter 4.10 m
Span 29.00 m
Shape Box + pan
Manufacturer SPXS
Bus Type Starlink V2MD
Phase Status In Orbit
Owner/State SPXS/US

Most Searched